TAL15 NSTU-NSFA

Flight info

Callsign TAL15
Flight time 0h 41m
Altitude 14000
Route FALFA
Aircraft AC90/L-SBDFGRY/SB1

Departure

Time 2026-05-06 17:46
Airport Pago Pago International Airport (NSTU)

Arrival

Time 2026-05-06 18:27
Airport Faleolo International Airport (NSFA)
Time Latitude Longitude Altitude Speed Heading
2026-05-06 17:29 -14.32846 -170.71272 23 ft 0 kts 324°
2026-05-06 17:43 -14.32802 -170.71272 23 ft 11 kts 27°
2026-05-06 17:43 -14.32786 -170.71204 23 ft 12 kts 117°
2026-05-06 17:43 -14.32869 -170.71150 22 ft 16 kts 160°
2026-05-06 17:44 -14.32974 -170.71068 19 ft 20 kts 134°
2026-05-06 17:44 -14.33044 -170.71005 18 ft 0 kts 144°
2026-05-06 17:44 -14.33045 -170.71005 18 ft 1 kts 144°
2026-05-06 17:45 -14.33075 -170.70984 17 ft 8 kts 146°
2026-05-06 17:45 -14.33111 -170.70955 17 ft 5 kts 139°
2026-05-06 17:45 -14.33183 -170.70975 16 ft 34 kts 243°
2026-05-06 17:45 -14.33452 -170.71466 46 ft 111 kts 244°
2026-05-06 17:46 -14.33888 -170.72189 404 ft 125 kts 239°
2026-05-06 17:46 -14.34364 -170.72977 866 ft 132 kts 242°
2026-05-06 17:46 -14.34781 -170.73798 1360 ft 133 kts 248°
2026-05-06 17:46 -14.35178 -170.74699 1727 ft 143 kts 247°
2026-05-06 17:47 -14.35623 -170.75681 2029 ft 161 kts 247°
2026-05-06 17:47 -14.36103 -170.76772 2432 ft 169 kts 258°
2026-05-06 17:47 -14.35967 -170.77931 2874 ft 166 kts 298°
2026-05-06 17:47 -14.35402 -170.78944 3371 ft 164 kts 306°
2026-05-06 17:48 -14.34769 -170.79918 3870 ft 164 kts 308°
2026-05-06 17:48 -14.34134 -170.80876 4358 ft 163 kts 307°
2026-05-06 17:48 -14.33504 -170.81848 4858 ft 162 kts 307°
2026-05-06 17:48 -14.32907 -170.82791 5477 ft 156 kts 307°
2026-05-06 17:49 -14.32341 -170.83691 6198 ft 149 kts 307°
2026-05-06 17:49 -14.31803 -170.84563 6886 ft 143 kts 306°
2026-05-06 17:49 -14.31260 -170.85449 7401 ft 150 kts 305°
2026-05-06 17:49 -14.30699 -170.86372 7916 ft 155 kts 304°
2026-05-06 17:50 -14.30125 -170.87318 8421 ft 160 kts 304°
2026-05-06 17:50 -14.29538 -170.88287 8926 ft 163 kts 304°
2026-05-06 17:50 -14.28935 -170.89282 9431 ft 165 kts 304°
2026-05-06 17:50 -14.28316 -170.90300 9826 ft 175 kts 304°
2026-05-06 17:51 -14.27620 -170.91449 9843 ft 201 kts 303°
2026-05-06 17:51 -14.26849 -170.92735 9823 ft 219 kts 303°
2026-05-06 17:51 -14.26027 -170.94098 9816 ft 231 kts 303°
2026-05-06 17:51 -14.25155 -170.95532 9811 ft 240 kts 303°
2026-05-06 17:52 -14.24257 -170.97005 9809 ft 246 kts 303°
2026-05-06 17:52 -14.23346 -170.98498 9807 ft 250 kts 303°
2026-05-06 17:52 -14.22405 -171.00041 9806 ft 253 kts 303°
2026-05-06 17:52 -14.21465 -171.01582 9805 ft 255 kts 303°
2026-05-06 17:53 -14.20516 -171.03139 9805 ft 257 kts 303°
2026-05-06 17:53 -14.19560 -171.04706 9805 ft 258 kts 303°
2026-05-06 17:53 -14.18606 -171.06270 9804 ft 259 kts 303°
2026-05-06 17:53 -14.17646 -171.07843 9804 ft 260 kts 303°
2026-05-06 17:54 -14.16691 -171.09409 9805 ft 260 kts 303°
2026-05-06 17:54 -14.15728 -171.10989 9804 ft 260 kts 303°
2026-05-06 17:54 -14.14745 -171.12599 9805 ft 261 kts 303°
2026-05-06 17:54 -14.13772 -171.14195 9804 ft 261 kts 303°
2026-05-06 17:55 -14.12793 -171.15799 9804 ft 261 kts 303°
2026-05-06 17:55 -14.11828 -171.17380 9804 ft 261 kts 303°
2026-05-06 17:55 -14.10834 -171.19009 9804 ft 261 kts 303°
2026-05-06 17:55 -14.09853 -171.20615 9804 ft 261 kts 303°
2026-05-06 17:56 -14.08857 -171.22244 9804 ft 261 kts 303°
2026-05-06 17:56 -14.07864 -171.23869 9805 ft 261 kts 303°
2026-05-06 17:56 -14.06889 -171.25465 9804 ft 261 kts 303°
2026-05-06 17:56 -14.05933 -171.27029 9804 ft 261 kts 303°
2026-05-06 17:57 -14.04959 -171.28624 9805 ft 261 kts 303°
2026-05-06 17:57 -14.03990 -171.30209 9804 ft 261 kts 303°
2026-05-06 17:57 -14.03014 -171.31805 9805 ft 261 kts 303°
2026-05-06 17:57 -14.02060 -171.33365 9804 ft 261 kts 303°
2026-05-06 17:58 -14.01083 -171.34963 9844 ft 259 kts 303°
2026-05-06 17:58 -14.00138 -171.36508 9888 ft 257 kts 303°
2026-05-06 17:58 -13.99184 -171.38068 9884 ft 257 kts 303°
2026-05-06 17:58 -13.98233 -171.39621 9884 ft 257 kts 303°
2026-05-06 17:59 -13.97285 -171.41168 9884 ft 257 kts 303°
2026-05-06 17:59 -13.96336 -171.42720 9884 ft 257 kts 303°
2026-05-06 17:59 -13.95374 -171.44292 9884 ft 257 kts 303°
2026-05-06 17:59 -13.94422 -171.45845 9884 ft 257 kts 303°
2026-05-06 18:00 -13.93473 -171.47395 9884 ft 257 kts 303°
2026-05-06 18:00 -13.92526 -171.48943 9884 ft 257 kts 303°
2026-05-06 18:00 -13.91578 -171.50491 9884 ft 257 kts 303°
2026-05-06 18:00 -13.90614 -171.52065 9884 ft 257 kts 303°
2026-05-06 18:01 -13.89668 -171.53609 9885 ft 257 kts 303°
2026-05-06 18:01 -13.88714 -171.55164 9885 ft 257 kts 303°
2026-05-06 18:01 -13.87764 -171.56714 9885 ft 257 kts 303°
2026-05-06 18:01 -13.86811 -171.58269 9885 ft 257 kts 303°
2026-05-06 18:02 -13.85860 -171.59817 9885 ft 257 kts 303°
2026-05-06 18:02 -13.84907 -171.61371 9885 ft 257 kts 303°
2026-05-06 18:02 -13.83947 -171.62935 9885 ft 257 kts 303°
2026-05-06 18:02 -13.82995 -171.64487 9885 ft 257 kts 303°
2026-05-06 18:03 -13.81925 -171.65933 9880 ft 256 kts 319°
2026-05-06 18:03 -13.80387 -171.66815 9887 ft 252 kts 347°
2026-05-06 18:03 -13.78675 -171.66852 9889 ft 249 kts 15°
2026-05-06 18:03 -13.77170 -171.66042 9890 ft 246 kts 44°
2026-05-06 18:04 -13.76241 -171.64600 9889 ft 244 kts 72°
2026-05-06 18:04 -13.76096 -171.62871 9889 ft 244 kts 99°
2026-05-06 18:04 -13.76714 -171.61252 9893 ft 244 kts 117°
2026-05-06 18:04 -13.77534 -171.59715 9884 ft 245 kts 119°
2026-05-06 18:05 -13.78381 -171.58205 9883 ft 245 kts 120°
2026-05-06 18:05 -13.79247 -171.56686 9883 ft 246 kts 120°
2026-05-06 18:05 -13.80118 -171.55186 9883 ft 246 kts 124°
2026-05-06 18:05 -13.81401 -171.54016 9884 ft 248 kts 152°
2026-05-06 18:06 -13.83047 -171.53609 9889 ft 250 kts 179°
2026-05-06 18:06 -13.84721 -171.54068 9889 ft 253 kts 209°
2026-05-06 18:06 -13.85969 -171.55331 9890 ft 256 kts 239°
2026-05-06 18:06 -13.86439 -171.57077 9890 ft 256 kts 270°
2026-05-06 18:07 -13.86002 -171.58847 9893 ft 255 kts 297°
2026-05-06 18:07 -13.85185 -171.60457 9887 ft 256 kts 299°
2026-05-06 18:07 -13.84323 -171.62056 9883 ft 256 kts 300°
2026-05-06 18:07 -13.83434 -171.63664 9883 ft 257 kts 300°
2026-05-06 18:08 -13.82550 -171.65242 9883 ft 256 kts 304°
2026-05-06 18:08 -13.81278 -171.66498 9884 ft 254 kts 332°
2026-05-06 18:08 -13.79619 -171.66972 9890 ft 250 kts
2026-05-06 18:08 -13.77956 -171.66588 9889 ft 247 kts 29°
2026-05-06 18:09 -13.76688 -171.65443 9889 ft 245 kts 57°
2026-05-06 18:09 -13.76105 -171.63812 9889 ft 244 kts 85°
2026-05-06 18:09 -13.76351 -171.62103 9889 ft 244 kts 112°
2026-05-06 18:09 -13.77118 -171.60545 9889 ft 245 kts 118°
2026-05-06 18:10 -13.77945 -171.59019 9883 ft 245 kts 119°
2026-05-06 18:10 -13.78796 -171.57501 9883 ft 246 kts 119°
2026-05-06 18:10 -13.79648 -171.55986 9883 ft 246 kts 119°
2026-05-06 18:10 -13.80653 -171.54553 9879 ft 247 kts 137°
2026-05-06 18:11 -13.82156 -171.53725 9888 ft 249 kts 165°
2026-05-06 18:11 -13.83296 -171.53621 9889 ft 251 kts 184°
2026-05-06 18:11 -13.85399 -171.54591 9889 ft 255 kts 223°
2026-05-06 18:11 -13.86303 -171.56119 9876 ft 257 kts 253°
2026-05-06 18:12 -13.86358 -171.57942 9558 ft 257 kts 285°
2026-05-06 18:12 -13.85604 -171.59601 9200 ft 255 kts 300°
2026-05-06 18:12 -13.84755 -171.61212 8825 ft 255 kts 300°
2026-05-06 18:12 -13.83900 -171.62791 8454 ft 255 kts 300°
2026-05-06 18:13 -13.83073 -171.64397 8078 ft 255 kts 293°
2026-05-06 18:13 -13.82647 -171.66174 7771 ft 253 kts 277°
2026-05-06 18:13 -13.82580 -171.67952 7523 ft 249 kts 271°
2026-05-06 18:13 -13.82580 -171.69734 7268 ft 246 kts 274°
2026-05-06 18:14 -13.82370 -171.71475 7018 ft 244 kts 279°
2026-05-06 18:14 -13.82132 -171.73196 6766 ft 242 kts 279°
2026-05-06 18:14 -13.81896 -171.74896 6518 ft 241 kts 279°
2026-05-06 18:14 -13.81663 -171.76592 6269 ft 240 kts 279°
2026-05-06 18:15 -13.81432 -171.78288 6019 ft 240 kts 279°
2026-05-06 18:15 -13.81201 -171.79996 5768 ft 239 kts 279°
2026-05-06 18:15 -13.80975 -171.81676 5520 ft 238 kts 279°
2026-05-06 18:15 -13.80750 -171.83369 5270 ft 238 kts 279°
2026-05-06 18:16 -13.80528 -171.85048 5022 ft 238 kts 279°
2026-05-06 18:16 -13.80307 -171.86736 4773 ft 237 kts 279°
2026-05-06 18:16 -13.80088 -171.88417 4524 ft 237 kts 279°
2026-05-06 18:16 -13.79870 -171.90106 4274 ft 237 kts 279°
2026-05-06 18:17 -13.79654 -171.91789 4024 ft 236 kts 279°
2026-05-06 18:17 -13.79439 -171.93472 3774 ft 236 kts 279°
2026-05-06 18:17 -13.79226 -171.95155 3524 ft 236 kts 279°
2026-05-06 18:17 -13.79015 -171.96835 3274 ft 235 kts 279°
2026-05-06 18:18 -13.78805 -171.98515 3024 ft 235 kts 279°
2026-05-06 18:18 -13.78592 -172.00232 2768 ft 235 kts 279°
2026-05-06 18:18 -13.78386 -172.01898 2520 ft 234 kts 279°
2026-05-06 18:18 -13.78182 -172.03557 2371 ft 229 kts 279°
2026-05-06 18:19 -13.77983 -172.05186 2377 ft 220 kts 279°
2026-05-06 18:19 -13.77909 -172.06729 2380 ft 215 kts 270°
2026-05-06 18:19 -13.77976 -172.08246 2382 ft 210 kts 269°
2026-05-06 18:19 -13.78047 -172.09741 2382 ft 207 kts 269°
2026-05-06 18:20 -13.78119 -172.11197 2383 ft 205 kts 269°
2026-05-06 18:20 -13.78192 -172.12662 2384 ft 203 kts 269°
2026-05-06 18:20 -13.78265 -172.14119 2384 ft 202 kts 269°
2026-05-06 18:20 -13.78337 -172.15553 2385 ft 201 kts 269°
2026-05-06 18:21 -13.78411 -172.16997 2385 ft 201 kts 269°
2026-05-06 18:21 -13.78484 -172.18434 2385 ft 200 kts 269°
2026-05-06 18:21 -13.78667 -172.19847 2379 ft 201 kts 247°
2026-05-06 18:21 -13.79641 -172.20795 2389 ft 194 kts 199°
2026-05-06 18:22 -13.80954 -172.20941 2393 ft 187 kts 179°
2026-05-06 18:22 -13.82184 -172.20676 2378 ft 180 kts 144°
2026-05-06 18:22 -13.82922 -172.19699 2393 ft 170 kts 105°
2026-05-06 18:22 -13.83123 -172.18512 2389 ft 166 kts 91°
2026-05-06 18:23 -13.83166 -172.17335 2438 ft 157 kts 88°
2026-05-06 18:23 -13.83172 -172.16225 2416 ft 157 kts 87°
2026-05-06 18:23 -13.83164 -172.15099 2377 ft 153 kts 86°
2026-05-06 18:23 -13.83155 -172.14031 2375 ft 146 kts 86°
2026-05-06 18:24 -13.83144 -172.12996 2379 ft 142 kts 86°
2026-05-06 18:24 -13.83132 -172.11980 2382 ft 139 kts 86°
2026-05-06 18:24 -13.83119 -172.10979 2378 ft 138 kts 86°
2026-05-06 18:24 -13.83103 -172.09999 2114 ft 134 kts 85°
2026-05-06 18:25 -13.83095 -172.09070 1729 ft 128 kts 86°
2026-05-06 18:25 -13.83089 -172.08160 1344 ft 125 kts 85°
2026-05-06 18:25 -13.83081 -172.07294 1062 ft 115 kts 85°
2026-05-06 18:25 -13.83076 -172.06519 901 ft 106 kts 85°
2026-05-06 18:26 -13.83062 -172.05733 786 ft 112 kts 84°
2026-05-06 18:26 -13.83048 -172.04904 644 ft 122 kts 85°
2026-05-06 18:26 -13.83037 -172.04010 469 ft 127 kts 85°
2026-05-06 18:26 -13.83029 -172.03096 292 ft 126 kts 85°
2026-05-06 18:27 -13.83020 -172.02203 122 ft 121 kts 85°
2026-05-06 18:27 -13.83001 -172.01410 57 ft 101 kts 88°
2026-05-06 18:27 -13.83000 -172.00824 36 ft 53 kts 90°
2026-05-06 18:27 -13.82996 -172.00523 36 ft 40 kts 89°
2026-05-06 18:28 -13.82994 -172.00241 36 ft 37 kts 89°
2026-05-06 18:28 -13.82992 -171.99977 35 ft 36 kts 88°
2026-05-06 18:28 -13.83016 -171.99754 33 ft 20 kts 150°
2026-05-06 18:28 -13.83148 -171.99757 39 ft 19 kts 192°
2026-05-06 18:29 -13.83185 -171.99783 40 ft 0 kts 261°
2026-05-06 18:30 -13.83185 -171.99782 40 ft 0 kts 261°